Regional Weather Roundup
Issued by NWS

Home | Current Version | Previous Version | Graphics & Text | Print | Product List | Glossary On
Versions: 1 2 3 4 5 6 7 8 9 10 11 12 13 14 15 16 17 18 19 20 21 22 23 24 25 26 27 28 29
000
ASUS45 KCYS 290610
RWRWY

WYOMING REGIONAL WEATHER ROUNDUP
NATIONAL WEATHER SERVICE CHEYENNE WY
1200 AM MDT FRI APR 29 2016

NOTE:  "FAIR" INDICATES FEW OR NO CLOUDS BELOW 12,000 FEET
WITH NO SIGNIFICANT WEATHER AND/OR OBSTRUCTIONS TO VISIBILITY.

WYZ001-290700-
YELLOWSTONE NATIONAL PARK

CITY           SKY/WX    TMP DP  RH WIND       PRES   REMARKS
LK YELLOWSTONE   N/A     29  22  75 E3        29.96F
6HR MIN TEMP:  29; 6HR MAX TEMP:  37;

W YELLOWSTONE  NOT AVBL

$$
WYZ002>013-054>058-071-098>099-290700-
NORTHERN WYOMING

CITY           SKY/WX    TMP DP  RH WIND       PRES   REMARKS
JACKSON        CLOUDY    36  34  93 NW5       29.94R WCI  32
CODY           CLOUDY    34  30  86 NE3       30.03F
GREYBULL       CLOUDY    42  32  67 CALM      30.04S
6HR MIN TEMP:  42; 6HR MAX TEMP:  46;

WORLAND        CLOUDY    40  31  70 S6        30.04S
6HR MIN TEMP:  40; 6HR MAX TEMP:  43;

SHERIDAN       CLOUDY    37  32  82 CALM      30.07F
6HR MIN TEMP:  37; 6HR MAX TEMP:  39;

BUFFALO          N/A    N/A N/A N/A MISG      30.07F
GILLETTE       CLOUDY    35  33  92 CALM      30.08F
6HR MIN TEMP:  34; 6HR MAX TEMP:  37; 6HR PCP: TRACE;

HULETT         CLOUDY    36  32  87 CALM      30.10S
NEWCASTLE      CLOUDY    34  34 100 S5        30.11S WCI  30

$$
WYZ014>020-022>026-101>103-290700-
CENTRAL WYOMING

CITY           SKY/WX    TMP DP  RH WIND       PRES   REMARKS
BIG PINEY      CLOUDY    32  25  75 S14       29.98R WCI  22
6HR MIN TEMP:  32; 6HR MAX TEMP:  40;

PINEDALE       CLOUDY    32  27  80 NW5       29.98S WCI  27
DUBOIS         CLOUDY    28  27  93 SE13      30.00S WCI  18
LANDER         CLOUDY    33  27  78 CALM      30.04S
6HR MIN TEMP:  33; 6HR MAX TEMP:  37;

RIVERTON       CLOUDY    34  27  75 SE6       30.06R WCI  29
6HR MIN TEMP:  34; 6HR MAX TEMP:  39;

CASPER         CLOUDY    32  28  85 E10       30.05F WCI  24
6HR MIN TEMP:  31; 6HR MAX TEMP:  36; 6HR PCP: TRACE;

DOUGLAS        CLOUDY    33  31  92 CALM      30.08F
6HR MIN TEMP:  32; 6HR MAX TEMP:  38; 6HR PCP: TRACE;


$$
WYZ021-027>030-104>119-290700-
SOUTHERN WYOMING

CITY           SKY/WX    TMP DP  RH WIND       PRES   REMARKS
EVANSTON       FLURRIES  31  27  85 NE15      29.92S WCI  20
6HR MIN TEMP:  31; 6HR MAX TEMP:  35; 6HR PCP: TRACE;

KEMMERER       CLOUDY    30  28  93 NE14      29.96  WCI  20
FORT BRIDGER   CLOUDY    32  32 100 E13       29.96S WCI  22
ROCK SPRINGS   CLOUDY    31  26  82 NE17      29.96F WCI  19
6HR MIN TEMP:  31; 6HR MAX TEMP:  34;

DIXON          FAIR      35  33  91 CALM      29.94F
RAWLINS        CLOUDY    31  27  85 NE14      29.97S WCI  21
6HR MIN TEMP:  31; 6HR MAX TEMP:  33;

SARATOGA       FAIR      30  30 100 CALM      29.96R
LARAMIE        CLOUDY    29  27  92 SE22      29.98R WCI  15
6HR MIN TEMP:  29; 6HR MAX TEMP:  31; 6HR PCP: TRACE;

CHEYENNE       CLOUDY    33  31  92 SE5       30.03R WCI  29
6HR MIN TEMP:  32; 6HR MAX TEMP:  35; 6HR PCP:  0.01;

TORRINGTON     CLOUDY    35  34  96 NE5       30.08S WCI  31
6HR MIN TEMP:  34; 6HR MAX TEMP:  37; 6HR PCP:  0.04;

PINE BLUFFS    CLOUDY    34  32  93 E5        30.06R WCI  30

$$




USA.gov is the U.S. government's official web portal to all federal, state and local government web resources and services.